NOAA 16 DEB, 42350

Orbit data source: Space-Track

NOAA 16 DEB, 42350 is space debris in SSO originally from a launch on Thu, 21 Sep 2000 UTC launched from the Air Force Western Test Range (AFWTR). Debris objects in space refer to the collection of defunct objects orbiting the Earth. Examples of debris include non-operational satellites, rocket bodies, and fragments generated from explosions, collisions, or faulty payload assembly.

Loading next visibility...
Identifier
42350, 2000-055QS
Orbit
SSO
Country
Flag of USUS
Related business
Manufacturer
Unknown
Mission
Spacecraft
Bus & Motor
Unknown
Mass
Unknown
Launch date (UTC)
2000-09-21 (25 years ago)
Launch vehicle
Unknown
Launch site
Air Force Western Test Range (AFWTR)
Object type
Payload
Rocket body
Debris
Shape & HBR
Unknown shape, 0.1 m
Radar Cross Section
Small (<0.1 m²)

Expand to show TLE details & history
Last TLE update: 3 days ago

TLE from 3 days ago
0 NOAA 16 DEB
1 42350U 00055QS  25344.70917813  .00001401  00000-0  81234-3 0  9995
2 42350  98.6327 332.1014 0026570  46.2541 314.0824 14.10195519469699
Epoch: 2025-12-10T17:01Z
TLE epoch observation values (Epoch: 2025-12-10T17:01:12.990Z)
Latitude
Longitude
-2.87834°
Altitude
848.253 km
Speed
7.435 km/s
True Right ascension
22h 08m 24s
True Declination
0° 00' 00"
Sunlit
Object was in daylight at epoch
Visualization orbit readout
Latitude
Unknown
Longitude
Unknown
Altitude
Unknown
Speed
Unknown
Apparent Right ascension
Unknown
Apparent Declination
Unknown
Sunlit
N/A
Visualization observer readout
Local Sidereal Time
15:10:47
Azimuth
Unknown
Elevation
Unknown
Doppler factor
Unknown
Orbital elements
Apogee altitude
875.092 km
Perigee altitude
836.65 km
Semi-major axis
7,234.008 km
Eccentricity
0.00266
Inclination
98.6327°
RAAN
332.1014°
Arg. of periapsis
46.2541°
True anomaly
313.86318°
Mean anomaly
314.0824°
Eccentric anomaly
313.97284°
Mean motion
3.52756 °/min
Orbital period
102.05 mins
BSTAR
0.00081234
Loading maneuver chart data...
Computing Atmospheric mass density...
Loading historical data...
Loading historical data...
Loading historical data...
Loading historical data...
Loading historical data...
Loading historical data...
Loading historical data...

Documentation

Showing up to 5 results
|